User: anonymous   Login
Location: Unspecified
(0.0000°N, 0.0000°E)
Time: 23:18:51
(UTC+00:00)
Language:

FALCON 9 R/B - Orbit

View from above orbital plane
View from above orbital plane
View from above satellite
View from above satellite

Ground track
Ground track

The orbit data is extracted from the following two-line orbital elements,

1 39271U 13055G   18050.61319970 +.00006079 +00000-0 +15345-3 0  9999
2 39271 080.9649 094.7533 0620942 188.4449 170.5908 14.40195000228200
Epoch (UTC): 19 February 2018 14:43:00
Eccentricity: 0.0620942
inclination: 80.9649°
perigee height: 315 km
apogee height: 1201 km
right ascension of ascending node: 94.7533°
argument of perigee: 188.4449°
revolutions per day: 14.40195000
mean anomaly at epoch: 170.5908°
orbit number at epoch: 22820

The dashed part of the orbit path shows where the satellite is in the earth's shadow,  

DLR